Pope Field Airport, NC

8:13 PM EDT on May 24, 2017 (GMT -0400)
Pope Field Airport

Weather History for KPOB - May, 2013

Change the Weather History Date:

Wednesday, May 15, 2013

  Actual Average Record
Temperature  
Mean Temperature 73 °F -  
Max Temperature 89 °F 81 °F 90 °F (1991)
Min Temperature 58 °F 59 °F 48 °F (2007)
Cooling Degree Days 8    
Growing Degree Days 23 (Base 50)    
Moisture  
Dew Point 55 °F    
Average Humidity 52    
Maximum Humidity 71    
Minimum Humidity 36    
Precipitation  
Precipitation 0.07 in - - ()
Sea Level Pressure  
Sea Level Pressure 30.03 in    
Wind  
Wind Speed 10 mph (SW)    
Max Wind Speed 15 mph    
Max Gust Speed -    
Visibility 10 miles    
Events Rain    
Averages and records for this station are not official NWS values.
T = Trace of Precipitation, MM = Missing Value Source: NWS Daily Summary

Daily Weather History Graph

Daily Weather History Graph

Search for Another Location

Airport or City:

Trip Planner

Search our weather history database for the weather conditions in past years. The results will help you decide how hot, cold, wet, or windy it might be!

Date:

Astronomy

May. 15, 2013 Rise Set
Actual Time 6:11 AM EDT 8:13 PM EDT
Civil Twilight 5:43 AM EDT 8:41 PM EDT
Nautical Twilight 5:09 AM EDT 9:15 PM EDT
Astronomical Twilight 4:32 AM EDT 9:52 PM EDT
Moon 10:43 AM EDT (5/15) 12:00 AM EDT (5/15)
Length of Visible Light 14h 57m
Length of Day
14h 01m
Waxing Crescent, 26% of the Moon is Illuminated
May 15
Waxing Crescent
May 18
First Quarter
May 25
Full
May 31
Last Quarter
Jun 8
New

Hourly Weather History & Observations

Time (EDT) Temp. Heat Index Dew Point Humidity Pressure Visibility Wind Dir Wind Speed Gust Speed Precip Events Conditions
12:58 AM 61.0 °F - 45.3 °F 56% 30.11 in 10.0 mi SSW 11.5 mph - N/A   Scattered Clouds
1:58 AM 59.9 °F - 47.7 °F 64% 30.10 in 10.0 mi SSW 8.1 mph - N/A   Clear
2:58 AM 59.2 °F - 49.3 °F 70% 30.10 in 10.0 mi SSW 6.9 mph - N/A   Clear
3:58 AM 59.2 °F - 49.8 °F 71% 30.10 in 10.0 mi SSW 6.9 mph - N/A   Clear
4:58 AM 59.2 °F - 49.6 °F 71% 30.09 in 10.0 mi SSW 8.1 mph - N/A   Clear
5:58 AM 58.3 °F - 49.1 °F 71% 30.10 in 10.0 mi SW 8.1 mph - N/A   Clear
6:58 AM 59.2 °F - 48.4 °F 67% 30.10 in 10.0 mi WSW 8.1 mph - N/A   Clear
7:58 AM 62.4 °F - 48.6 °F 60% 30.10 in 10.0 mi WSW 10.4 mph - N/A   Clear
8:55 AM 66.2 °F - 50.0 °F 56% 30.10 in 10.0 mi WSW 15.0 mph - N/A   Clear
9:55 AM 71.6 °F - 52.9 °F 52% 30.08 in 10.0 mi WSW 11.5 mph - N/A   Clear
10:55 AM 75.6 °F - 54.7 °F 48% 30.07 in 10.0 mi SW 10.4 mph - N/A   Clear
10:58 AM 75.6 °F - 54.7 °F 48% 30.08 in 10.0 mi SSW 10.4 mph - N/A   Clear
11:58 AM 79.5 °F - 56.5 °F 45% 30.07 in 10.0 mi WSW 8.1 mph - N/A   Clear
12:58 PM 82.6 °F 82.2 °F 57.6 °F 42% 30.05 in 10.0 mi WSW 10.4 mph - N/A   Clear
1:58 PM 86.2 °F 85.2 °F 58.1 °F 38% 30.02 in 10.0 mi SW 8.1 mph - N/A   Clear
2:11 PM 86.0 °F 87.3 °F 64.4 °F 48% 30.00 in 5.0 mi West 10.4 mph - N/A Rain Light Rain
2:20 PM 86.0 °F 85.4 °F 59.0 °F 40% 30.00 in 9.0 mi SW 11.5 mph - N/A   Clear
2:58 PM 87.6 °F 86.7 °F 58.3 °F 37% 29.99 in 10.0 mi SW 10.4 mph - 0.07 in   Clear
3:58 PM 88.5 °F 87.8 °F 58.8 °F 37% 29.97 in 10.0 mi SW 11.5 mph - N/A   Clear
4:58 PM 88.9 °F 88.0 °F 58.8 °F 36% 29.96 in 10.0 mi SW 10.4 mph - N/A   Clear
5:58 PM 88.7 °F 88.0 °F 59.5 °F 37% 29.94 in 10.0 mi SW 13.8 mph - N/A   Clear
6:58 PM 86.7 °F 86.5 °F 60.1 °F 41% 29.93 in 10.0 mi SW 13.8 mph - N/A   Clear
7:58 PM 84.0 °F 84.4 °F 61.0 °F 46% 29.94 in 10.0 mi SW 9.2 mph - N/A   Clear
8:58 PM 81.0 °F 81.7 °F 61.0 °F 50% 29.94 in 10.0 mi SW 10.4 mph - N/A   Clear
9:58 PM 79.2 °F - 60.8 °F 53% 29.95 in 10.0 mi SW 8.1 mph - N/A   Clear
10:58 PM 77.7 °F - 60.8 °F 56% 29.96 in 10.0 mi SW 10.4 mph - N/A   Clear
11:58 PM 75.4 °F - 60.8 °F 60% 29.96 in 10.0 mi SW 9.2 mph - N/A   Clear